,,Stat6,,Stat2,,Stat8,,Stat9,,Stat10,,Wind1,,Wind1,
time,status,PA1M_AVG,status,PR1M_SUM,status,RH1M_AVG,status,SR1M_AVG,status,TA1M_AVG,status,W1dAve1m,status,W1sAve1m,
2009-06-25, 00:00:00,VALID,917.049,VALID,0,VALID,92.6008,VALID,-0.0679233,VALID,21.23,VALID,142,VALID,1.58668,
2009-06-25, 00:01:00,VALID,917.046,VALID,0,VALID,92.5868,VALID,-0.0849042,VALID,21.2295,VALID,135,VALID,2.27958,
2009-06-25, 00:02:00,VALID,917.041,VALID,0,VALID,92.4736,VALID,-0.0849042,VALID,21.2654,VALID,127,VALID,1.8005,
2009-06-25, 00:03:00,VALID,917.036,VALID,0,VALID,92.508,VALID,-0.0509425,VALID,21.256,VALID,125,VALID,0.568452,
2009-06-25, 00:04:00,VALID,917.023,VALID,0,VALID,92.644,VALID,-0.0509425,VALID,21.2262,VALID,125,VALID,0.852604,
2009-06-25, 00:05:00,VALID,917.021,VALID,0,VALID,92.7407,VALID,-0.0679233,VALID,21.2035,VALID,131,VALID,1.37805,
2009-06-25, 00:06:00,VALID,917.004,VALID,0,VALID,92.6911,VALID,-0.101885,VALID,21.2295,VALID,135,VALID,1.73152,
2009-06-25, 00:07:00,VALID,917.001,VALID,0,VALID,92.6618,VALID,-0.0509425,VALID,21.2362,VALID,122,VALID,0.6163,
2009-06-25, 00:08:00,VALID,916.969,VALID,0,VALID,92.6771,VALID,-0.0679233,VALID,21.2335,VALID,115,VALID,0.76441,
2009-06-25, 00:09:00,VALID,916.951,VALID,0,VALID,92.6745,VALID,-0.0339617,VALID,21.2235,VALID,115,VALID,1.25675,
2009-06-25, 00:10:00,VALID,916.923,VALID,0,VALID,92.7597,VALID,-0.101885,VALID,21.2005,VALID,132,VALID,1.31895,
2009-06-25, 00:11:00,VALID,916.905,VALID,0,VALID,92.8271,VALID,-0.101885,VALID,21.2016,VALID,130,VALID,0.859012,
2009-06-25, 00:12:00,VALID,916.894,VALID,0,VALID,92.8246,VALID,0,VALID,21.1924,VALID,119,VALID,0.587612,
2009-06-25, 00:13:00,VALID,916.899,VALID,0,VALID,92.8729,VALID,0.0169808,VALID,21.1797,VALID,105,VALID,0.400923,
2009-06-25, 00:14:00,VALID,916.894,VALID,0,VALID,92.9314,VALID,0,VALID,21.1732,VALID,98,VALID,0.341933,
2009-06-25, 00:15:00,VALID,916.888,VALID,0,VALID,92.9339,VALID,0.0509425,VALID,21.1564,VALID,122,VALID,0.522166,
2009-06-25, 00:16:00,VALID,916.857,VALID,0,VALID,92.9645,VALID,0.0169808,VALID,21.1532,VALID,116,VALID,0.415365,
2009-06-25, 00:17:00,VALID,916.852,VALID,0,VALID,93.0408,VALID,0,VALID,21.154,VALID,121,VALID,1.04993,
2009-06-25, 00:18:00,VALID,916.851,VALID,0,VALID,93.1082,VALID,0.0509425,VALID,21.1342,VALID,124,VALID,0.472124,
2009-06-25, 00:19:00,VALID,916.83,VALID,0,VALID,93.0687,VALID,0,VALID,21.1345,VALID,127,VALID,0.78196,
2009-06-25, 00:20:00,VALID,916.812,VALID,0,VALID,93.0776,VALID,0,VALID,21.131,VALID,126,VALID,0.758789,
2009-06-25, 00:21:00,VALID,916.796,VALID,0,VALID,93.0293,VALID,0.0169808,VALID,21.1567,VALID,132,VALID,0.95141,
2009-06-25, 00:22:00,VALID,916.791,VALID,0,VALID,92.9632,VALID,0.0339617,VALID,21.1802,VALID,98,VALID,0.617001,
2009-06-25, 00:23:00,VALID,916.773,VALID,0,VALID,92.9886,VALID,0.0339617,VALID,21.1435,VALID,111,VALID,1.1859,
2009-06-25, 00:24:00,VALID,916.782,VALID,0,VALID,92.7953,VALID,0.0169808,VALID,21.1856,VALID,117,VALID,1.14862,
2009-06-25, 00:25:00,VALID,916.757,VALID,0,VALID,92.6656,VALID,0.0339617,VALID,21.2149,VALID,122,VALID,0.0892079,
2009-06-25, 00:26:00,VALID,916.759,VALID,0,VALID,92.7101,VALID,0.0339617,VALID,21.2054,VALID,108,VALID,0.0553977,
2009-06-25, 00:27:00,VALID,916.75,VALID,0,VALID,92.7534,VALID,-0.101885,VALID,21.1943,VALID,110,VALID,0.0792411,
2009-06-25, 00:28:00,VALID,916.745,VALID,0,VALID,92.8093,VALID,-0.101885,VALID,21.1745,VALID,131,VALID,0.758176,
2009-06-25, 00:29:00,VALID,916.742,VALID,0,VALID,92.8742,VALID,-0.0679233,VALID,21.1613,VALID,124,VALID,0.649771,
2009-06-25, 00:30:00,VALID,916.725,VALID,0,VALID,92.995,VALID,-0.0849042,VALID,21.1321,VALID,113,VALID,0.231399,
2009-06-25, 00:31:00,VALID,916.708,VALID,0,VALID,93.0509,VALID,-0.101885,VALID,21.1261,VALID,109,VALID,0.0943216,
2009-06-25, 00:32:00,VALID,916.691,VALID,0,VALID,93.0954,VALID,-0.0849042,VALID,21.1129,VALID,113,VALID,0.146723,
2009-06-25, 00:33:00,VALID,916.67,VALID,0,VALID,93.1578,VALID,-0.0679233,VALID,21.1099,VALID,130,VALID,0.625372,
2009-06-25, 00:34:00,VALID,916.647,VALID,0,VALID,93.1412,VALID,-0.101885,VALID,21.1299,VALID,132,VALID,0.727108,
2009-06-25, 00:35:00,VALID,916.617,VALID,0,VALID,92.9835,VALID,-0.101885,VALID,21.1551,VALID,144,VALID,0.707209,
2009-06-25, 00:36:00,VALID,916.589,VALID,0,VALID,92.747,VALID,-0.0679233,VALID,21.184,VALID,155,VALID,1.47526,
2009-06-25, 00:37:00,VALID,916.581,VALID,0,VALID,92.3261,VALID,-0.0509425,VALID,21.2749,VALID,147,VALID,0.0715278,
2009-06-25, 00:38:00,VALID,916.57,VALID,0,VALID,92.0731,VALID,-0.0509425,VALID,21.3171,VALID,121,VALID,0.614281,
2009-06-25, 00:39:00,VALID,916.547,VALID,0,VALID,92.0731,VALID,-0.0849042,VALID,21.3144,VALID,162,VALID,0.287016,
2009-06-25, 00:40:00,VALID,916.548,VALID,0,VALID,92.1824,VALID,-0.101885,VALID,21.2879,VALID,173,VALID,0,
2009-06-25, 00:41:00,VALID,916.542,VALID,0,VALID,92.2791,VALID,-0.0339617,VALID,21.2614,VALID,153,VALID,0,
2009-06-25, 00:42:00,VALID,916.528,VALID,0,VALID,92.4444,VALID,-0.0339617,VALID,21.2189,VALID,164,VALID,0.449405,
2009-06-25, 00:43:00,VALID,916.511,VALID,0,VALID,92.6606,VALID,0,VALID,21.2,VALID,168,VALID,0.53404,
2009-06-25, 00:44:00,VALID,916.519,VALID,0,VALID,92.9683,VALID,-0.0169808,VALID,21.1383,VALID,162,VALID,1.0061,
2009-06-25, 00:45:00,VALID,916.513,VALID,0,VALID,93.3459,VALID,-0.0169808,VALID,21.0796,VALID,159,VALID,0.220486,
2009-06-25, 00:46:00,VALID,916.489,VALID,0,VALID,93.6969,VALID,-0.0169808,VALID,21.0185,VALID,156,VALID,0.285252,
2009-06-25, 00:47:00,VALID,916.466,VALID,0,VALID,93.9779,VALID,-0.0339617,VALID,20.96,VALID,186,VALID,0.969401,
2009-06-25, 00:48:00,VALID,916.449,VALID,0,VALID,94.0949,VALID,-0.0169808,VALID,20.9468,VALID,133,VALID,0.125545,
2009-06-25, 00:49:00,VALID,916.425,VALID,0,VALID,94.0682,VALID,-0.0169808,VALID,20.9598,VALID,135,VALID,0.968359,
2009-06-25, 00:50:00,VALID,916.406,VALID,0,VALID,93.9995,VALID,0,VALID,20.966,VALID,129,VALID,0.840625,
2009-06-25, 00:51:00,VALID,916.387,VALID,0,VALID,93.9665,VALID,-0.0339617,VALID,20.9765,VALID,149,VALID,0.885671,
2009-06-25, 00:52:00,VALID,916.378,VALID,0,VALID,93.9907,VALID,-0.0339617,VALID,20.973,VALID,150,VALID,0.618576,
2009-06-25, 00:53:00,VALID,916.365,VALID,0,VALID,94.0504,VALID,-0.0169808,VALID,20.9565,VALID,130,VALID,1.60975,
2009-06-25, 00:54:00,VALID,916.357,VALID,0,VALID,94.1,VALID,-0.0169808,VALID,20.9435,VALID,142,VALID,0.622954,
2009-06-25, 00:55:00,VALID,916.354,VALID,0,VALID,94.1649,VALID,-0.0339617,VALID,20.9373,VALID,157,VALID,0.656605,
2009-06-25, 00:56:00,VALID,916.328,VALID,0,VALID,94.2958,VALID,-0.0169808,VALID,20.9146,VALID,152,VALID,0.934152,
2009-06-25, 00:57:00,VALID,916.333,VALID,0,VALID,94.5374,VALID,-0.0339617,VALID,20.8629,VALID,151,VALID,0.946987,
2009-06-25, 00:58:00,VALID,916.32,VALID,0,VALID,94.8719,VALID,-0.0339617,VALID,20.804,VALID,150,VALID,0.775213,
2009-06-25, 00:59:00,VALID,916.309,VALID,0,VALID,95.2216,VALID,-0.0169808,VALID,20.7458,VALID,146,VALID,1.12429,
2009-06-25, 01:00:00,VALID,916.279,VALID,0,VALID,95.4568,VALID,-0.0169808,VALID,20.6933,VALID,153,VALID,0.873512,
2009-06-25, 01:01:00,VALID,916.259,VALID,0,VALID,95.5802,VALID,-0.0339617,VALID,20.6906,VALID,133,VALID,1.11488,
2009-06-25, 01:02:00,VALID,916.227,VALID,0,VALID,95.5992,VALID,-0.0339617,VALID,20.6906,VALID,149,VALID,0.704545,
2009-06-25, 01:03:00,VALID,916.196,VALID,0,VALID,95.659,VALID,-0.0169808,VALID,20.6711,VALID,148,VALID,0.28404,
2009-06-25, 01:04:00,VALID,916.176,VALID,0,VALID,95.7429,VALID,0,VALID,20.6517,VALID,128,VALID,0.396532,
2009-06-25, 01:05:00,VALID,916.171,VALID,0,VALID,95.8879,VALID,-0.0169808,VALID,20.6257,VALID,144,VALID,0.559642,
2009-06-25, 01:06:00,VALID,916.164,VALID,0,VALID,95.851,VALID,-0.0339617,VALID,20.6676,VALID,144,VALID,1.4308,
2009-06-25, 01:07:00,VALID,916.17,VALID,0,VALID,95.4657,VALID,-0.0509425,VALID,20.7685,VALID,136,VALID,0.415516,
2009-06-25, 01:08:00,VALID,916.167,VALID,0,VALID,95.144,VALID,-0.0169808,VALID,20.8075,VALID,140,VALID,0.333333,
2009-06-25, 01:09:00,VALID,916.151,VALID,0,VALID,95.0105,VALID,0,VALID,20.8002,VALID,150,VALID,1.29408,
2009-06-25, 01:10:00,VALID,916.162,VALID,0,VALID,94.9444,VALID,0,VALID,20.8137,VALID,148,VALID,1.70694,
2009-06-25, 01:11:00,VALID,916.167,VALID,0,VALID,95.0041,VALID,0,VALID,20.7972,VALID,149,VALID,0.589844,
2009-06-25, 01:12:00,VALID,916.17,VALID,0,VALID,95.102,VALID,-0.0339617,VALID,20.7812,VALID,133,VALID,0.405506,
2009-06-25, 01:13:00,VALID,916.158,VALID,0,VALID,95.2152,VALID,-0.0169808,VALID,20.7515,VALID,138,VALID,0.774826,
2009-06-25, 01:14:00,VALID,916.158,VALID,0,VALID,95.3335,VALID,-0.0339617,VALID,20.739,VALID,144,VALID,0.604469,
2009-06-25, 01:15:00,VALID,916.133,VALID,0,VALID,95.3475,VALID,-0.0509425,VALID,20.7555,VALID,137,VALID,0.667333,
2009-06-25, 01:16:00,VALID,916.126,VALID,0,VALID,95.3157,VALID,-0.0169808,VALID,20.7553,VALID,127,VALID,1.06668,
2009-06-25, 01:17:00,VALID,916.09,VALID,0,VALID,95.2521,VALID,-0.0169808,VALID,20.7618,VALID,125,VALID,0.850391,
2009-06-25, 01:18:00,VALID,916.095,VALID,0,VALID,95.2572,VALID,-0.0169808,VALID,20.7588,VALID,134,VALID,1.47656,
2009-06-25, 01:19:00,VALID,916.066,VALID,0,VALID,95.3907,VALID,-0.0169808,VALID,20.739,VALID,141,VALID,1.04633,
2009-06-25, 01:20:00,VALID,916.039,VALID,0,VALID,95.4695,VALID,-0.0339617,VALID,20.729,VALID,151,VALID,1.11518,
2009-06-25, 01:21:00,VALID,916.023,VALID,0,VALID,95.3309,VALID,0,VALID,20.7842,VALID,129,VALID,1.02586,
2009-06-25, 01:22:00,VALID,916.032,VALID,0,VALID,95.069,VALID,-0.0509425,VALID,20.8232,VALID,129,VALID,0.806734,
2009-06-25, 01:23:00,VALID,916.027,VALID,0,VALID,94.9914,VALID,-0.0339617,VALID,20.8232,VALID,147,VALID,0.633539,
2009-06-25, 01:24:00,VALID,916.006,VALID,0,VALID,94.9812,VALID,-0.0339617,VALID,20.8332,VALID,150,VALID,0.894792,
2009-06-25, 01:25:00,VALID,915.995,VALID,0,VALID,94.9024,VALID,-0.0169808,VALID,20.8462,VALID,149,VALID,0.310632,
2009-06-25, 01:26:00,VALID,915.998,VALID,0,VALID,94.9189,VALID,-0.0169808,VALID,20.8334,VALID,139,VALID,1.06516,
2009-06-25, 01:27:00,VALID,915.986,VALID,0,VALID,94.9787,VALID,-0.0169808,VALID,20.8302,VALID,131,VALID,0.898958,
2009-06-25, 01:28:00,VALID,915.998,VALID,0,VALID,94.8884,VALID,-0.0339617,VALID,20.8689,VALID,132,VALID,0.682292,
2009-06-25, 01:29:00,VALID,915.99,VALID,0,VALID,94.7727,VALID,-0.0169808,VALID,20.8886,VALID,140,VALID,0.421113,
2009-06-25, 01:30:00,VALID,915.976,VALID,0,VALID,94.6977,VALID,-0.0339617,VALID,20.8819,VALID,147,VALID,1.11793,
2009-06-25, 01:31:00,VALID,915.954,VALID,0,VALID,94.5082,VALID,-0.0169808,VALID,20.9435,VALID,142,VALID,1.51358,
2009-06-25, 01:32:00,VALID,915.94,VALID,0,VALID,94.1432,VALID,-0.0339617,VALID,21.0149,VALID,116,VALID,1.01432,
2009-06-25, 01:33:00,VALID,915.952,VALID,0,VALID,93.9411,VALID,-0.0339617,VALID,21.0444,VALID,115,VALID,1.67561,
2009-06-25, 01:34:00,VALID,915.936,VALID,0,VALID,93.702,VALID,-0.0169808,VALID,21.0931,VALID,123,VALID,1.71332,
2009-06-25, 01:35:00,VALID,915.921,VALID,0,VALID,93.496,VALID,-0.0339617,VALID,21.1353,VALID,136,VALID,0.997569,
2009-06-25, 01:36:00,VALID,915.921,VALID,0,VALID,93.5583,VALID,-0.0339617,VALID,21.1123,VALID,113,VALID,1.01509,
2009-06-25, 01:37:00,VALID,915.923,VALID,0,VALID,93.7071,VALID,-0.0509425,VALID,21.0834,VALID,126,VALID,1.49637,
2009-06-25, 01:38:00,VALID,915.906,VALID,0,VALID,93.8088,VALID,-0.0169808,VALID,21.0671,VALID,111,VALID,0.866642,
2009-06-25, 01:39:00,VALID,915.923,VALID,0,VALID,93.847,VALID,-0.0509425,VALID,21.0707,VALID,134,VALID,1.76254,
2009-06-25, 01:40:00,VALID,915.922,VALID,0,VALID,93.8215,VALID,-0.0509425,VALID,21.0899,VALID,142,VALID,1.26505,
2009-06-25, 01:41:00,VALID,915.919,VALID,0,VALID,93.6995,VALID,-0.0169808,VALID,21.1156,VALID,133,VALID,1.15191,
2009-06-25, 01:42:00,VALID,915.922,VALID,0,VALID,93.6282,VALID,-0.0679233,VALID,21.1223,VALID,119,VALID,1.06159,
2009-06-25, 01:43:00,VALID,915.913,VALID,0,VALID,93.4502,VALID,-0.101885,VALID,21.1453,VALID,142,VALID,1.12252,
2009-06-25, 01:44:00,VALID,915.896,VALID,0,VALID,93.0306,VALID,-0.0849042,VALID,21.1932,VALID,141,VALID,1.06177,
2009-06-25, 01:45:00,VALID,915.907,VALID,0,VALID,92.6873,VALID,-0.0849042,VALID,21.3041,VALID,143,VALID,1.5984,
2009-06-25, 01:46:00,VALID,915.908,VALID,0,VALID,92.4266,VALID,-0.101885,VALID,21.3496,VALID,153,VALID,0.787064,
2009-06-25, 01:47:00,VALID,915.901,VALID,0,VALID,92.4177,VALID,-0.0509425,VALID,21.3331,VALID,149,VALID,0.740972,
2009-06-25, 01:48:00,VALID,915.888,VALID,0,VALID,92.4533,VALID,-0.0679233,VALID,21.3236,VALID,141,VALID,1.31387,
2009-06-25, 01:49:00,VALID,915.89,VALID,0,VALID,92.5855,VALID,-0.0679233,VALID,21.2974,VALID,153,VALID,1.14528,
2009-06-25, 01:50:00,VALID,915.867,VALID,0,VALID,92.6135,VALID,-0.0509425,VALID,21.3009,VALID,147,VALID,0.75186,
2009-06-25, 01:51:00,VALID,915.871,VALID,0,VALID,92.6822,VALID,-0.0339617,VALID,21.2846,VALID,138,VALID,0.885538,
2009-06-25, 01:52:00,VALID,915.871,VALID,0,VALID,92.8487,VALID,-0.0509425,VALID,21.2552,VALID,146,VALID,0.825267,
2009-06-25, 01:53:00,VALID,915.853,VALID,0,VALID,93.0064,VALID,-0.0339617,VALID,21.2159,VALID,148,VALID,1.22284,
2009-06-25, 01:54:00,VALID,915.826,VALID,0,VALID,93.0369,VALID,-0.0679233,VALID,21.213,VALID,150,VALID,1.16584,
2009-06-25, 01:55:00,VALID,915.812,VALID,0,VALID,92.9721,VALID,-0.0849042,VALID,21.236,VALID,138,VALID,0.994855,
2009-06-25, 01:56:00,VALID,915.799,VALID,0,VALID,93.0077,VALID,-0.0679233,VALID,21.1997,VALID,161,VALID,1.20241,
2009-06-25, 01:57:00,VALID,915.799,VALID,0,VALID,93.0382,VALID,-0.0509425,VALID,21.1837,VALID,166,VALID,1.16188,
2009-06-25, 01:58:00,VALID,915.778,VALID,0,VALID,93.1221,VALID,-0.0339617,VALID,21.1613,VALID,167,VALID,0.634673,
2009-06-25, 01:59:00,VALID,915.762,VALID,0,VALID,93.1387,VALID,-0.0169808,VALID,21.164,VALID,154,VALID,0.713796,
2009-06-25, 02:00:00,VALID,915.739,VALID,0,VALID,93.1031,VALID,-0.0509425,VALID,21.1475,VALID,146,VALID,1.45527,
2009-06-25, 02:01:00,VALID,915.734,VALID,0,VALID,93.0751,VALID,-0.0679233,VALID,21.1613,VALID,153,VALID,0.937863,
2009-06-25, 02:02:00,VALID,915.719,VALID,0,VALID,93.1628,VALID,-0.0339617,VALID,21.1221,VALID,177,VALID,0.801711,
2009-06-25, 02:03:00,VALID,915.706,VALID,0,VALID,93.2366,VALID,-0.0339617,VALID,21.1158,VALID,156,VALID,2.03693,
2009-06-25, 02:04:00,VALID,915.696,VALID,0,VALID,93.1221,VALID,-0.0849042,VALID,21.1348,VALID,161,VALID,1.44588,
2009-06-25, 02:05:00,VALID,915.683,VALID,0,VALID,93.1552,VALID,-0.0169808,VALID,21.1188,VALID,165,VALID,0.846007,
2009-06-25, 02:06:00,VALID,915.686,VALID,0,VALID,93.234,VALID,-0.0509425,VALID,21.1158,VALID,163,VALID,1.48628,
2009-06-25, 02:07:00,VALID,915.666,VALID,0,VALID,93.1323,VALID,-0.0169808,VALID,21.1383,VALID,143,VALID,1.97433,
2009-06-25, 02:08:00,VALID,915.648,VALID,0,VALID,92.9963,VALID,-0.0509425,VALID,21.161,VALID,140,VALID,1.30806,
2009-06-25, 02:09:00,VALID,915.641,VALID,0,VALID,92.9034,VALID,-0.0679233,VALID,21.1713,VALID,140,VALID,1.26767,
2009-06-25, 02:10:00,VALID,915.639,VALID,0,VALID,92.8538,VALID,-0.0679233,VALID,21.1513,VALID,121,VALID,0.590774,
2009-06-25, 02:11:00,VALID,915.637,VALID,0,VALID,92.789,VALID,-0.0509425,VALID,21.168,VALID,135,VALID,1.10472,
2009-06-25, 02:12:00,VALID,915.641,VALID,0,VALID,92.6631,VALID,-0.0679233,VALID,21.1837,VALID,145,VALID,1.49964,
2009-06-25, 02:13:00,VALID,915.642,VALID,0,VALID,92.5487,VALID,-0.0679233,VALID,21.1905,VALID,123,VALID,1.77961,
2009-06-25, 02:14:00,VALID,915.633,VALID,0,VALID,92.5843,VALID,-0.0509425,VALID,21.1837,VALID,135,VALID,0.535742,
2009-06-25, 02:15:00,VALID,915.622,VALID,0,VALID,92.7407,VALID,-0.0679233,VALID,21.135,VALID,155,VALID,0.397743,
2009-06-25, 02:16:00,VALID,915.621,VALID,0,VALID,92.864,VALID,-0.0679233,VALID,21.1156,VALID,154,VALID,1.32656,
2009-06-25, 02:17:00,VALID,915.628,VALID,0,VALID,92.9619,VALID,-0.0679233,VALID,21.1026,VALID,150,VALID,0.623884,
2009-06-25, 02:18:00,VALID,915.621,VALID,0,VALID,93.1361,VALID,-0.0849042,VALID,21.0671,VALID,153,VALID,1.06105,
2009-06-25, 02:19:00,VALID,915.616,VALID,0,VALID,93.2951,VALID,-0.0679233,VALID,21.0314,VALID,147,VALID,1.39844,
2009-06-25, 02:20:00,VALID,915.622,VALID,0,VALID,93.4655,VALID,-0.0849042,VALID,20.9992,VALID,146,VALID,0.904535,
2009-06-25, 02:21:00,VALID,915.616,VALID,0,VALID,93.6829,VALID,-0.0679233,VALID,20.9698,VALID,138,VALID,1.75896,
2009-06-25, 02:22:00,VALID,915.611,VALID,0,VALID,93.7796,VALID,-0.0849042,VALID,20.9468,VALID,140,VALID,1.00112,
2009-06-25, 02:23:00,VALID,915.613,VALID,0,VALID,93.9487,VALID,-0.101885,VALID,20.9181,VALID,150,VALID,0.907227,
2009-06-25, 02:24:00,VALID,915.616,VALID,0,VALID,94.1966,VALID,-0.0679233,VALID,20.8724,VALID,145,VALID,1.1157,
2009-06-25, 02:25:00,VALID,915.611,VALID,0,VALID,94.3607,VALID,-0.0339617,VALID,20.8491,VALID,135,VALID,0.834985,
2009-06-25, 02:26:00,VALID,915.606,VALID,0,VALID,94.3391,VALID,-0.101885,VALID,20.8624,VALID,137,VALID,1.58274,
2009-06-25, 02:27:00,VALID,915.604,VALID,0,VALID,94.2615,VALID,0.0169808,VALID,20.8903,VALID,141,VALID,0.91311,
2009-06-25, 02:28:00,VALID,915.596,VALID,0,VALID,94.0809,VALID,0.0339617,VALID,20.926,VALID,160,VALID,0.637429,
2009-06-25, 02:29:00,VALID,915.601,VALID,0,VALID,94.0275,VALID,0.0169808,VALID,20.9165,VALID,129,VALID,0.904297,
2009-06-25, 02:30:00,VALID,915.598,VALID,0,VALID,94.0402,VALID,0.0169808,VALID,20.9097,VALID,146,VALID,1.0231,
2009-06-25, 02:31:00,VALID,915.601,VALID,0,VALID,94.156,VALID,0.0339617,VALID,20.8611,VALID,140,VALID,0.66673,
2009-06-25, 02:32:00,VALID,915.605,VALID,0,VALID,94.3658,VALID,0,VALID,20.8191,VALID,171,VALID,0.24399,
2009-06-25, 02:33:00,VALID,915.614,VALID,0,VALID,94.5133,VALID,0.0339617,VALID,20.8056,VALID,142,VALID,1.12411,
2009-06-25, 02:34:00,VALID,915.615,VALID,0,VALID,94.6493,VALID,0,VALID,20.7767,VALID,109,VALID,0.359375,
2009-06-25, 02:35:00,VALID,915.614,VALID,0,VALID,94.8503,VALID,0,VALID,20.7312,VALID,112,VALID,0.36441,
2009-06-25, 02:36:00,VALID,915.59,VALID,0,VALID,95.1236,VALID,0.0339617,VALID,20.6761,VALID,121,VALID,1.64137,
2009-06-25, 02:37:00,VALID,915.582,VALID,0,VALID,95.0295,VALID,0.0169808,VALID,20.7247,VALID,89,VALID,1.64335,
2009-06-25, 02:38:00,VALID,915.597,VALID,0,VALID,94.6087,VALID,0.0169808,VALID,20.8186,VALID,106,VALID,0.831395,
2009-06-25, 02:39:00,VALID,915.575,VALID,0,VALID,94.4166,VALID,0.0169808,VALID,20.8413,VALID,132,VALID,1.06529,
2009-06-25, 02:40:00,VALID,915.581,VALID,0,VALID,94.4866,VALID,0.0509425,VALID,20.8024,VALID,148,VALID,0.743278,
2009-06-25, 02:41:00,VALID,915.581,VALID,0,VALID,94.6735,VALID,0,VALID,20.7702,VALID,142,VALID,0.768601,
2009-06-25, 02:42:00,VALID,915.562,VALID,0,VALID,94.7384,VALID,0,VALID,20.7653,VALID,115,VALID,0.43099,
2009-06-25, 02:43:00,VALID,915.557,VALID,0,VALID,94.6621,VALID,-0.0169808,VALID,20.7775,VALID,109,VALID,0.627046,
2009-06-25, 02:44:00,VALID,915.58,VALID,0,VALID,94.6493,VALID,0,VALID,20.7612,VALID,119,VALID,1.24698,
2009-06-25, 02:45:00,VALID,915.571,VALID,0,VALID,94.793,VALID,-0.0169808,VALID,20.7425,VALID,133,VALID,0.776215,
2009-06-25, 02:46:00,VALID,915.583,VALID,0,VALID,95.0054,VALID,-0.0339617,VALID,20.6971,VALID,128,VALID,0.526972,
2009-06-25, 02:47:00,VALID,915.566,VALID,0,VALID,95.0359,VALID,-0.0169808,VALID,20.6963,VALID,122,VALID,0.773624,
2009-06-25, 02:48:00,VALID,915.57,VALID,0,VALID,94.8197,VALID,-0.0339617,VALID,20.752,VALID,115,VALID,0.506098,
2009-06-25, 02:49:00,VALID,915.568,VALID,0,VALID,94.6964,VALID,0,VALID,20.749,VALID,111,VALID,0.783794,
2009-06-25, 02:50:00,VALID,915.549,VALID,0,VALID,94.367,VALID,-0.0849042,VALID,20.8437,VALID,108,VALID,1.25399,
2009-06-25, 02:51:00,VALID,915.534,VALID,0,VALID,93.8648,VALID,-0.0849042,VALID,20.9246,VALID,78,VALID,1.85193,
2009-06-25, 02:52:00,VALID,915.538,VALID,0,VALID,93.7872,VALID,-0.0339617,VALID,20.9243,VALID,129,VALID,0.581214,
2009-06-25, 02:53:00,VALID,915.527,VALID,0,VALID,93.8597,VALID,-0.0679233,VALID,20.8984,VALID,112,VALID,0.705785,
2009-06-25, 02:54:00,VALID,915.522,VALID,0,VALID,93.9678,VALID,-0.0169808,VALID,20.8559,VALID,130,VALID,0.886719,
2009-06-25, 02:55:00,VALID,915.519,VALID,0,VALID,94.161,VALID,-0.0509425,VALID,20.8267,VALID,89,VALID,1.1274,
2009-06-25, 02:56:00,VALID,915.516,VALID,0,VALID,94.2106,VALID,-0.0169808,VALID,20.8359,VALID,79,VALID,1.13139,
2009-06-25, 02:57:00,VALID,915.505,VALID,0,VALID,94.1661,VALID,-0.0509425,VALID,20.8424,VALID,94,VALID,0.990663,
2009-06-25, 02:58:00,VALID,915.511,VALID,0,VALID,94.2412,VALID,-0.0509425,VALID,20.814,VALID,112,VALID,0.663352,
2009-06-25, 02:59:00,VALID,915.493,VALID,0,VALID,94.2157,VALID,-0.0509425,VALID,20.7877,VALID,124,VALID,0.977653,
2009-06-25, 03:00:00,VALID,915.483,VALID,0,VALID,94.1331,VALID,-0.0849042,VALID,20.7883,VALID,129,VALID,1.55673,
2009-06-25, 03:01:00,VALID,915.473,VALID,0,VALID,93.9856,VALID,-0.0339617,VALID,20.8237,VALID,137,VALID,1.44477,
2009-06-25, 03:02:00,VALID,915.462,VALID,0,VALID,93.8317,VALID,-0.0849042,VALID,20.8494,VALID,109,VALID,1.20145,
2009-06-25, 03:03:00,VALID,915.441,VALID,0,VALID,93.6766,VALID,-0.0679233,VALID,20.8529,VALID,134,VALID,1.0831,
2009-06-25, 03:04:00,VALID,915.441,VALID,0,VALID,93.5341,VALID,-0.0339617,VALID,20.8399,VALID,135,VALID,1.19188,
2009-06-25, 03:05:00,VALID,915.422,VALID,0,VALID,93.1031,VALID,-0.0679233,VALID,20.8724,VALID,139,VALID,1.57472,
2009-06-25, 03:06:00,VALID,915.413,VALID,0,VALID,92.8653,VALID,-0.0339617,VALID,20.9143,VALID,130,VALID,0.860102,
2009-06-25, 03:07:00,VALID,915.417,VALID,0,VALID,92.8411,VALID,-0.0509425,VALID,20.9181,VALID,126,VALID,0.842115,
2009-06-25, 03:08:00,VALID,915.418,VALID,0,VALID,92.9594,VALID,-0.0849042,VALID,20.8691,VALID,110,VALID,0.523074,
2009-06-25, 03:09:00,VALID,915.42,VALID,0,VALID,93.0573,VALID,-0.0849042,VALID,20.8272,VALID,134,VALID,0.701791,
2009-06-25, 03:10:00,VALID,915.417,VALID,0,VALID,93.0141,VALID,-0.0849042,VALID,20.8175,VALID,142,VALID,1.25444,
2009-06-25, 03:11:00,VALID,915.416,VALID,0,VALID,92.6898,VALID,-0.0679233,VALID,20.8626,VALID,143,VALID,1.33957,
2009-06-25, 03:12:00,VALID,915.42,VALID,0,VALID,92.4139,VALID,-0.0679233,VALID,20.8854,VALID,149,VALID,1.05929,
2009-06-25, 03:13:00,VALID,915.417,VALID,0,VALID,92.068,VALID,-0.0679233,VALID,20.9211,VALID,137,VALID,0.901163,
2009-06-25, 03:14:00,VALID,915.4,VALID,0,VALID,91.7831,VALID,-0.0849042,VALID,20.9565,VALID,142,VALID,0.891578,
2009-06-25, 03:15:00,VALID,915.412,VALID,0,VALID,91.7399,VALID,-0.0339617,VALID,20.9468,VALID,117,VALID,0.57848,
2009-06-25, 03:16:00,VALID,915.41,VALID,0,VALID,91.937,VALID,-0.0679233,VALID,20.8948,VALID,131,VALID,1.06406,
2009-06-25, 03:17:00,VALID,915.41,VALID,0,VALID,91.9535,VALID,-0.0679233,VALID,20.8659,VALID,140,VALID,1.27834,
2009-06-25, 03:18:00,VALID,915.414,VALID,0,VALID,91.7234,VALID,-0.0509425,VALID,20.8813,VALID,146,VALID,0.918423,
2009-06-25, 03:19:00,VALID,915.414,VALID,0,VALID,91.2898,VALID,-0.0679233,VALID,20.9341,VALID,139,VALID,0.798328,
2009-06-25, 03:20:00,VALID,915.408,VALID,0,VALID,91.0215,VALID,-0.0679233,VALID,20.986,VALID,133,VALID,0.924352,
2009-06-25, 03:21:00,VALID,915.423,VALID,0,VALID,90.6412,VALID,-0.0339617,VALID,21.0022,VALID,136,VALID,1.30344,
2009-06-25, 03:22:00,VALID,915.434,VALID,0,VALID,90.4454,VALID,-0.0169808,VALID,21.0182,VALID,141,VALID,1.08036,
2009-06-25, 03:23:00,VALID,915.439,VALID,0,VALID,90.2267,VALID,-0.0339617,VALID,21.0312,VALID,127,VALID,0.788672,
2009-06-25, 03:24:00,VALID,915.458,VALID,0,VALID,90.2979,VALID,-0.0509425,VALID,21.025,VALID,122,VALID,0.669207,
2009-06-25, 03:25:00,VALID,915.459,VALID,0,VALID,90.4734,VALID,-0.101885,VALID,20.9698,VALID,129,VALID,0.668341,
2009-06-25, 03:26:00,VALID,915.464,VALID,0,VALID,90.7455,VALID,-0.0679233,VALID,20.9246,VALID,131,VALID,0.666243,
2009-06-25, 03:27:00,VALID,915.478,VALID,0,VALID,90.8142,VALID,0.0339617,VALID,20.8803,VALID,128,VALID,0.905134,
2009-06-25, 03:28:00,VALID,915.482,VALID,0,VALID,90.4734,VALID,0.0509425,VALID,20.9033,VALID,125,VALID,0.835574,
2009-06-25, 03:29:00,VALID,915.478,VALID,0,VALID,90.4492,VALID,0.0339617,VALID,20.9484,VALID,130,VALID,0.635861,